This demonstration page uses our WeatherBlox Daily Observations layout. Learn more.

Left ArrowRight Arrow

38.89511, -77.03637

Hourly Observations for May 26, 2018

Temp ( °F °C ) Dew Point ( °F °C ) Humidity (%) Winds ( mph kmh ) Pressure ( in mb ) Visibility ( mi km ) Precip ( " mm )
12:52 am 00:52 Cloudy 75 23.9 66 18.9 74 74 S 8 13 29.90 1013 10 16 0.00 0.00
1:52 am 01:52 Mostly Clear 74 23.3 66 18.9 76 76 S 10 17 29.88 1012 10 16 0.00 0.00
2:52 am 02:52 Mostly Cloudy 74 23.3 66 18.9 76 76 S 9 15 29.87 1012 10 16 0.00 0.00
3:52 am 03:52 Partly Cloudy 73 22.8 66 18.9 79 79 S 9 15 29.87 1011 10 16 0.00 0.00
4:52 am 04:52 Partly Cloudy 73 22.8 66 18.9 79 79 S 8 13 29.87 1011 10 16 0.00 0.00
5:52 am 05:52 Partly Cloudy 72 22.2 67 19.4 84 84 S 8 13 29.87 1012 10 16 0.00 0.00
6:52 am 06:52 Mostly Cloudy 73 22.8 67 19.4 81 81 S 8 13 29.88 1012 10 16 0.00 0.00
7:52 am 07:52 Mostly Cloudy 74 23.3 67 19.4 79 79 S 8 13 29.88 1012 10 16 0.00 0.00
8:52 am 08:52 Partly Cloudy 76 24.4 68 20 77 77 S 7 11 29.89 1012 10 16 0.00 0.00
9:52 am 09:52 Mostly Sunny 79 26.1 69 20.6 72 72 S 9 15 29.89 1012 10 16 0.00 0.00
10:52 am 10:52 Partly Cloudy 82 27.8 69 20.6 65 65 S 10 17 29.88 1012 10 16 0.00 0.00
11:52 am 11:52 Partly Cloudy 83 28.3 70 21.1 65 65 S 14 22 29.87 1012 10 16 0.00 0.00
12:52 pm 12:52 Partly Cloudy 85 29.4 70 21.1 61 61 S 13 20 29.86 1011 10 16 0.00 0.00
1:52 pm 13:52 Partly Cloudy 86 30 69 20.6 57 57 S 14 22 29.84 1011 10 16 0.00 0.00
2:52 pm 14:52 Mostly Cloudy 85 29.4 68 20 57 57 S 13 20 29.82 1010 10 16 0.00 0.00
2:54 pm 14:54 Mostly Cloudy with Thunderstorms 85 29.4 69 20.6 59 59 S 13 20 29.83 1010 10 16 0.00 0.00
3:17 pm 15:17 Mostly Cloudy with Thunderstorms 84 28.9 69 20.6 61 61 SSE 10 17 29.83 1010 10 16 0.00 0.00
3:52 pm 15:52 Cloudy 85 29.4 69 20.6 59 59 SW 10 17 29.83 1010 10 16 0.00 0.00
4:52 pm 16:52 Cloudy 84 28.9 70 21.1 63 63 S 5 7 29.83 1010 10 16 0.00 0.00
5:52 pm 17:52 Cloudy 83 28.3 70 21.1 65 65 S 7 11 29.83 1010 10 16 0.00 0.00
6:23 pm 18:23 Cloudy with Light Rain 83 28.3 70 21.1 65 65 S 8 13 29.83 1010 10 16 0.00 0.03
6:52 pm 18:52 Cloudy 84 28.9 70 21.1 63 63 SW 8 13 29.84 1010 10 16 0.00 0.03
7:10 pm 19:10 Cloudy 84 28.9 70 21.1 63 63 SSW 15 24 29.83 1010 10 16 0.00 0.00
7:52 pm 19:52 Cloudy with Light Rain 77 25 69 20.6 77 77 SW 6 9 29.83 1010 10 16 0.03 0.76
8:31 pm 20:31 Cloudy 76 24.4 71 21.7 85 85 S 10 17 29.85 1011 10 16 0.00 0.03
8:52 pm 20:52 Cloudy 76 24.4 71 21.7 85 85 SW 12 19 29.86 1011 10 16 0.00 0.03
9:52 pm 21:52 Clear 76 24.4 70 21.1 82 82 SW 7 11 29.88 1012 10 16 0.00 0.00
10:52 pm 22:52 Cloudy 75 23.9 70 21.1 84 84 S 7 11 29.89 1012 10 16 0.00 0.00
11:52 pm 23:52 Cloudy with Light Rain 74 23.3 70 21.1 88 88 S 5 7 29.89 1012 10 16 0.00 0.03

Powered by AerisWeather